{"data":{"norad_id":49001,"intl_designator":"2021-060AL","name":"ONEWEB-0283","alt_names":[],"object_type":"PAYLOAD","status":"ACTIVE","operator":null,"country":"UK","launch_date":"2021-07-01","launch_site_code":"VOSTO","launch_vehicle":null,"mission":null,"orbit_class":"UNKNOWN","rcs_meters":null,"size_class":null,"mass_kg":null,"dimensions":null,"purposes":["comms"],"wikipedia_slug":null,"has_3d_model":false,"image_url":null,"decayed_at":null,"tle_current":{"epoch":"2026-09-20T03:46:52.176576Z","epoch_age_seconds":51636,"freshness":"FRESH","line1":"1 49001U 21060AL  26263.15754834  .00000049  00000+0  94875-4 0  9998","line2":"2 49001  87.9156 209.9236 0002065  72.8015 287.3342 13.16593769252119","mean_motion":13.16593769,"eccentricity":0.0002065,"inclination_deg":87.9156,"raan_deg":209.9236,"arg_perigee_deg":72.8015,"mean_anomaly_deg":287.3342,"bstar":9.4875e-5,"rev_number":25211,"period_min":109.37314408633,"perigee_km":1196.1941166856,"apogee_km":1199.3229615432,"semimajor_km":7575.8955391144,"source":"CELESTRAK","updated_at":"2026-09-20T09:00:44.630219Z"}}}